www.pogodaiklimat.ru

Погода и климат >> Архив погоды >> Таджикистан >> Курган-Тюбе


АРХИВ ПОГОДЫ в Курган-Тюбе

Время (UTC), дата Ветер
(напр.,м/с)
 
Видим.   Явления Облачность Т
(С)
Тd
(С)
f
(%)
Тe
(С)
Тes
(С)
Комфортность P
(гПа)
Po
(гПа)
Тmin
(С)
Tmax
(С)
R
(мм)
R24
(мм)
S
(см)
09 10.09 СЗ 2 4000 м мгла ясно +27.0 +9.0 32 +27 +40 жарко 1017.3 969.3
12 10.09 Ю 2 10 км ясно +27.0 +9.3 33 +27 +30 жарко 1016.2 968.2
15 10.09 Ю 1 н/о ясно +19.8 +9.0 50 +22 +22 комфорт 1015.4 966.3 +27.5
18 10.09 СВ 1 н/о ясно +16.5 +10.0 65 +17 +17 прохладно 1015.1 965.6 +27.5
21 10.09 СВ 1 н/о ясно +14.5 +8.8 69 +15 +15 прохладно 1015.4 965.6
00 11.09 ЮВ 1 н/о ясно +12.3 +8.2 76 +12 +12 холодно 1016.7 966.4
03 11.09 штиль 0 10 км ясно +15.7 +10.2 70 +16 +19 холодно 1017.0 967.3 +12.0
06 11.09 Ю 1 10 км ясно +25.4 +9.2 36 +26 +41 жарко 1017.3 969.1 +12.0
09 11.09 ЮЗ 2 10 км ясно +29.0 +9.8 30 +29 +42 жарко 1016.3 968.6
12 11.09 ЮЗ 3 10 км ясно +29.0 +10.4 31 +29 +31 жарко 1015.1 967.7
15 11.09 В 1 н/о ясно +20.0 +10.2 53 +22 +22 комфорт 1014.8 965.8 +29.5
18 11.09 СВ 1 н/о ясно +16.9 +8.5 58 +18 +18 прохладно 1015.3 965.8 +29.5
21 11.09 В 2 н/о ясно +14.5 +9.0 70 +14 +14 холодно 1016.3 966.4
00 12.09 Ю 2 н/о ясно +13.7 +8.5 71 +13 +13 прохладно 1016.9 966.8
03 12.09 штиль 0 10 км ясно +18.4 +11.7 65 +19 +22 прохладно 1016.5 967.3 +13.0
06 12.09 ЮЗ 1 10 км ясно +25.4 +9.2 36 +26 +41 жарко 1016.8 968.6 +13.0
09 12.09 З 2 10 км ясно +28.8 +10.5 32 +29 +42 жарко 1014.2 966.6
12 12.09 Ю 1 10 км ясно +29.3 +10.0 30 +29 +32 жарко 1011.9 964.6
15 12.09 В 1 н/о ясно +21.2 +10.2 49 +23 +23 комфорт 1013.2 964.6 +30.1
18 12.09 СВ 1 н/о ясно +16.5 +9.8 65 +17 +17 прохладно 1015.0 965.5 +30.1
21 12.09 С 1 н/о ясно +15.5 +7.4 58 +16 +16 прохладно 1015.1 965.5
00 13.09 СВ 1 н/о ясно +13.9 +7.8 67 +14 +14 прохладно 1015.6 965.6
03 13.09 С 1 10 км ясно +16.9 +9.9 63 +18 +21 холодно 1016.6 967.0 +12.8
06 13.09 ЮЗ 1 10 км ясно +27.0 +10.5 36 +28 +43 жарко 1015.0 967.3 +12.8
09 13.09 Ю 2 10 км ясно +29.8 +9.5 28 +29 +42 жарко 1014.0 966.6
12 13.09 Ю 1 10 км ясно +30.2 +9.9 28 +30 +32 жарко 1011.0 963.9
15 13.09 СВ 90 н/о ясно +21.4 +10.6 50 +23 +23 комфорт 1012.8 964.2 +31.7
18 13.09 С 1 н/о ясно +17.3 +10.2 63 +18 +18 прохладно 1014.5 965.2 +31.7
21 13.09 СВ 1 н/о ясно +16.3 +8.6 60 +17 +17 по сезону 1014.7 965.2
00 14.09 В 1 н/о ясно +13.7 +8.2 69 +14 +14 прохладно 1015.0 965.0
03 14.09 С 1 10 км ясно +15.7 +11.0 74 +16 +19 холодно 1016.3 966.0 +12.9
06 14.09 Ю 1 10 км ясно +27.2 +10.5 35 +28 +43 жарко 1013.0 965.4 +12.9
09 14.09 ЮЗ 1 10 км 3/0
[Ci sp]
+31.2 +10.7 28 +31 +44 жарко 1011.3 964.3
12 14.09 ЮЗ 2 20 км ясно +31.0 +11.4 30 +31 +33 жарко 1009.6 962.7
15 14.09 ЮВ 2 н/о 4/0
[Ci sp]
+24.4 +10.4 41 +25 +25 комфорт 1009.5 961.6 +32.5
18 14.09 ЮВ 1 н/о 5/0
[Ci sp]
+20.7 +7.0 41 +23 +23 комфорт 1011.8 963.1 +32.5
21 14.09 З 1 н/о ясно +19.9 +8.1 46 +22 +22 комфорт 1013.5 859.8
00 15.09 З 1 н/о ясно +13.7 +5.9 59 +14 +14 прохладно 1015.7 965.7
03 15.09 штиль 0 10 км ясно +17.6 +8.0 53 +18 +21 прохладно 1016.9 967.5 +13.3
06 15.09 ЮЗ 2 20 км ясно +26.0 +7.1 30 +26 +38 жарко 1016.8 968.6 +13.3
09 15.09 З 2 20 км ясно +28.2 +9.0 30 +28 +40 жарко 1015.0 967.4
12 15.09 СЗ 1 20 км ясно +28.6 +8.9 29 +28 +31 жарко 1013.9 966.3
15 15.09 ЮЗ 1 н/о ясно +20.2 +9.8 51 +23 +23 комфорт 1015.2 966.3 +29.5
18 15.09 СВ 1 н/о ясно +18.0 +9.4 57 +19 +19 по сезону 1016.7 967.3 +29.5
21 15.09 СВ 1 н/о ясно +14.3 +7.7 64 +15 +15 прохладно 1017.2 967.3
00 16.09 В 1 н/о ясно +12.9 +7.1 68 +13 +13 прохладно 1018.0 967.7
03 16.09 СЗ 1 20 км 3/0
[Ci sp]
+15.5 +9.8 69 +16 +19 холодно 1018.2 968.4 +12.0
06 16.09 С 1 20 км 1/1 1000 м
[Cu hum]
+25.2 +9.0 36 +26 +39 жарко 1018.5 970.2 +12.0
09 16.09 ЮЗ 1 20 км 1/1 1000 м
[Cu hum]
+29.2 +9.9 30 +29 +42 жарко 1015.9 968.4
12 16.09 ЮЗ 1 20 км ясно +29.2 +9.0 28 +29 +31 жарко 1014.0 966.6
15 16.09 Ю 2 н/о ясно +22.6 +7.4 38 +24 +24 комфорт 1015.1 966.6 +30.3
18 16.09 СВ 1 н/о ясно +17.6 +6.5 48 +19 +19 по сезону 1017.7 968.2 +30.3
21 16.09 СВ 1 н/о ясно +15.5 +8.4 63 +16 +16 по сезону 1018.4 968.6
00 17.09 СВ 1 н/о ясно +12.7 +7.8 72 +13 +13 прохладно 1019.4 969.0
03 17.09 ЮВ 1 10 км ясно +16.5 +10.9 69 +17 +20 холодно 1020.4 970.6 +12.0
06 17.09 З 1 20 км ясно +25.6 +9.4 36 +26 +40 жарко 1018.9 970.6 +12.0

 

Местоположение метеостанции Курган-Тюбе (Таджикистан): широта 37.82 долгота 68.78 высота над уровнем моря 429 м.

В архиве по умолчанию представлена погода в Курган-Тюбе за последнюю неделю. Архивные данные за месяц целиком и за предыдущие месяцы, начиная с января 2011 года, Вы можете получить, выбрав интересующий диапазон дат из раскрывающегося списка и нажав кнопку "Ввод!".


*Определитесь, кто Вы:
робот инопланетянин человек

Внимание! Время в таблицах - всемирное. Для получения местного времени необходимо прибавить поправку, которая равна 5 ч.

Смотрите также архив погоды в соседних городах и на ближайших метеорологических станциях:

Погода в Исанбай (Таджикистан) (20 км)
Погода в Ганжине (Таджикистан) (23 км)
Погода в Дангаре (Таджикистан) (57 км)
Погода в Пархаре (Таджикистан) (65 км)
Погода в Пьяндже (Таджикистан) (71 км)
Погода в Душанбе (Таджикистан) (81 км)
Погода в Хамадони (Таджикистан) (85 км)
Погода в Шурчи (Сухрандарьинская область, Узбекистан) (88 км)
Погода в Кулябе (Таджикистан) (89 км)
Погода в Денау (Сухрандарьинская область, Узбекистан) (92 км)

Пояснения к столбцам:

Ветер - указаны скорость ветра в м/с - средняя за 10 мин, порывы в срок и между сроками (в фигурных скобках) и направление, откуда дует ветер: С - северный, СВ - северо-восточный, В - восточный, ЮВ - юго-восточный, Ю - южный, ЮЗ - юго-западный, З - западный, СЗ - северо-западный.
Видимость - горизонтальная дальность видимости в метрах или километрах. При видимости от 1 до 10 км при отсутствии осадков обычно наблюдается дымка, при ухудшении видимости до 1 км и менее - туман. В сухую погоду видимость может ухудшаться дымом, пылью или мглою.
Явления - указаны атмосферные явления, наблюдавшиеся в срок или в последний час перед сроком; фигурными скобками обозначены явления, наблюдавшиеся между сроками (за 1-3 часа до срока); квадратными скобками обозначены град или гололедные отложения с указанием их диаметра в мм.
Облачность - указаны через наклонную черту общая и нижняя облачность в баллах и высота нижней границы облаков в метрах; квадратными скобками обозначены формы облаков: Ci - перистые, Cs - перисто-слоистые, Cc - перисто-кучевые, Ac - высококучевые, As - высокослоистые, Sc - слоисто-кучевые, Ns - слоисто-дождевые, Cu - кучевые, Cb - кучево-дождевые. Подробнее классификацию облаков см. в Атласе облаков (PDF).
T - Температура воздуха - температура, измеренная на высоте 2 м над землей.
Td - Температура точки росы - температура, при понижении до которой содержащийся в воздухе водяной пар достигнет насыщения.
f - Относительная влажность воздуха - влажноcть воздуха, измеренная на высоте 2 м над землей.
Te - Эффективная температура - температура, которую ощущает одетый по сезону человек в тени. Характеристика душности погоды. При расчете учитывается влияние влажности воздуха и скорости ветра на теплоощущения человека.
Tes - Эффективная температура на солнце - температура, которую ощущает человек, с поправкой на солнечный нагрев. Характеристика знойности погоды. Зависит от высоты солнца над горизонтом, облачности и скорости ветра. Ночью, в пасмурную погоду, а также при ветре 12 м/с и более поправка равна нулю.
P - Атмосферное давление - приведенное к уровню моря атмосферное давление.
Po - Атмосферное давление - измеренное на уровне метеостанции атмосферное давление.
Tmin - Минимальная температура - минимум температуры воздуха на высоте 2 м над землей.
Tmax - Максимальная температура - максимум температуры воздуха на высоте 2 м над землей.
R - Количество осадков - Количество выпавших осадков за период времени, мм. При наведении курсора мыши на число - период времени, за который выпало указанное количество осадков.
R24 - Количество осадков - Количество выпавших осадков за 24 часа, мм.
S - Снежный покров - Высота снежного покрова, см. При наведении курсора мыши на число - состояние снежного покрова и степень покрытия местности в баллах.